Wetterdaten: Donnerstag, 20.05.2004
Datum Zeit Temp. A Sch. Temp. A Son. Feuchte A. Luftdruck Regen Wind Richtung Richtung Sonnenschein Helligkeit Taupunkt Windchill
20.05.2004 00:00 12,0 C 13,7 C 80 % 1021 hPa 0,0 l/m 0,0 m/s (0 Bft) W-SW 245 0,00 min 0 lux 8,7 C 12,0 C
20.05.2004 00:05 11,8 C 13,5 C 81 % 1021 hPa 0,0 l/m 0,0 m/s (0 Bft) W-SW 245 0,00 min 0 lux 8,6 C 11,8 C
20.05.2004 00:10 11,7 C 13,3 C 82 % 1021 hPa 0,0 l/m 0,0 m/s (0 Bft) W-SW 245 0,00 min 0 lux 8,7 C 11,7 C
20.05.2004 00:15 11,6 C 13,3 C 82 % 1021 hPa 0,0 l/m 0,0 m/s (0 Bft) W-SW 245 0,00 min 0 lux 8,6 C 11,6 C
20.05.2004 00:20 11,5 C 13,1 C 82 % 1021 hPa 0,0 l/m 0,0 m/s (0 Bft) W-SW 245 0,00 min 0 lux 8,5 C 11,5 C
20.05.2004 00:25 11,3 C 13,0 C 82 % 1021 hPa 0,0 l/m 0,0 m/s (0 Bft) W-SW 245 0,00 min 0 lux 8,3 C 11,3 C
20.05.2004 00:30 11,4 C 12,9 C 83 % 1021 hPa 0,0 l/m 0,0 m/s (0 Bft) W-SW 245 0,00 min 0 lux 8,6 C 11,4 C
20.05.2004 00:35 11,2 C 12,8 C 83 % 1021 hPa 0,0 l/m 0,0 m/s (0 Bft) W-SW 245 0,00 min 0 lux 8,4 C 11,2 C
20.05.2004 00:40 11,2 C 12,8 C 84 % 1021 hPa 0,0 l/m 0,0 m/s (0 Bft) W-SW 245 0,00 min 0 lux 8,6 C 11,2 C
20.05.2004 00:45 11,1 C 12,5 C 84 % 1021 hPa 0,0 l/m 0,0 m/s (0 Bft) W-SW 245 0,00 min 0 lux 8,5 C 11,1 C
20.05.2004 00:50 11,1 C 12,5 C 84 % 1021 hPa 0,0 l/m 0,0 m/s (0 Bft) W-SW 245 0,00 min 0 lux 8,5 C 11,1 C
20.05.2004 00:55 10,9 C 12,3 C 85 % 1021 hPa 0,0 l/m 0,0 m/s (0 Bft) W-SW 245 0,00 min 0 lux 8,5 C 10,9 C
20.05.2004 01:00 10,8 C 12,2 C 85 % 1021 hPa 0,0 l/m 0,0 m/s (0 Bft) W-SW 245 0,00 min 0 lux 8,4 C 10,8 C
20.05.2004 01:05 10,7 C 12,2 C 85 % 1021 hPa 0,0 l/m 0,0 m/s (0 Bft) W-SW 245 0,00 min 0 lux 8,3 C 10,7 C
20.05.2004 01:10 10,5 C 12,1 C 85 % 1021 hPa 0,0 l/m 0,0 m/s (0 Bft) W-SW 245 0,00 min 0 lux 8,1 C 10,5 C
20.05.2004 01:15 10,7 C 12,0 C 86 % 1021 hPa 0,0 l/m 0,0 m/s (0 Bft) W-SW 245 0,00 min 0 lux 8,5 C 10,7 C
20.05.2004 01:20 10,5 C 11,9 C 86 % 1021 hPa 0,0 l/m 0,0 m/s (0 Bft) W-SW 245 0,00 min 0 lux 8,3 C 10,5 C
20.05.2004 01:25 10,4 C 11,7 C 86 % 1021 hPa 0,0 l/m 0,0 m/s (0 Bft) W-SW 245 0,00 min 0 lux 8,2 C 10,4 C
20.05.2004 01:30 10,1 C 11,7 C 86 % 1021 hPa 0,0 l/m 0,0 m/s (0 Bft) W-SW 245 0,00 min 0 lux 7,9 C 10,1 C
20.05.2004 01:35 10,4 C 11,5 C 86 % 1021 hPa 0,0 l/m 0,0 m/s (0 Bft) W-SW 245 0,00 min 0 lux 8,2 C 10,4 C
20.05.2004 01:40 10,1 C 11,5 C 87 % 1021 hPa 0,0 l/m 0,0 m/s (0 Bft) W-SW 245 0,00 min 0 lux 8,0 C 10,1 C
20.05.2004 01:45 10,5 C 11,4 C 87 % 1021 hPa 0,0 l/m 0,0 m/s (0 Bft) W-SW 250 0,00 min 0 lux 8,4 C 10,5 C
20.05.2004 01:50 10,0 C 11,3 C 87 % 1021 hPa 0,0 l/m 0,0 m/s (0 Bft) W-SW 245 0,00 min 0 lux 7,9 C 10,0 C
20.05.2004 01:55 10,2 C 11,3 C 88 % 1021 hPa 0,0 l/m 0,0 m/s (0 Bft) W-SW 245 0,00 min 0 lux 8,3 C 10,2 C
20.05.2004 02:00 10,1 C 11,2 C 88 % 1021 hPa 0,0 l/m 0,0 m/s (0 Bft) W-SW 245 0,00 min 0 lux 8,2 C 10,1 C
20.05.2004 02:05 10,1 C 11,1 C 88 % 1021 hPa 0,0 l/m 0,0 m/s (0 Bft) W-SW 245 0,00 min 0 lux 8,2 C 10,1 C
20.05.2004 02:10 9,9 C 11,0 C 89 % 1021 hPa 0,0 l/m 0,0 m/s (0 Bft) W-SW 250 0,00 min 0 lux 8,2 C 9,9 C
20.05.2004 02:15 9,6 C 10,9 C 88 % 1021 hPa 0,0 l/m 0,0 m/s (0 Bft) W-SW 250 0,00 min 0 lux 7,7 C 9,6 C
20.05.2004 02:20 9,4 C 10,9 C 88 % 1021 hPa 0,0 l/m 0,0 m/s (0 Bft) W-SW 245 0,00 min 0 lux 7,5 C 9,4 C
20.05.2004 02:25 9,4 C 10,7 C 88 % 1021 hPa 0,0 l/m 0,0 m/s (0 Bft) W-SW 245 0,00 min 0 lux 7,5 C 9,4 C
20.05.2004 02:30 9,2 C 10,6 C 89 % 1021 hPa 0,0 l/m 0,0 m/s (0 Bft) W-SW 245 0,00 min 0 lux 7,5 C 9,2 C
20.05.2004 02:35 9,2 C 10,5 C 89 % 1021 hPa 0,0 l/m 0,0 m/s (0 Bft) W-SW 245 0,00 min 0 lux 7,5 C 9,2 C
20.05.2004 02:40 9,2 C 10,5 C 89 % 1021 hPa 0,0 l/m 0,0 m/s (0 Bft) W-SW 245 0,00 min 0 lux 7,5 C 9,2 C
20.05.2004 02:45 9,3 C 10,5 C 90 % 1021 hPa 0,0 l/m 0,0 m/s (0 Bft) W-SW 245 0,00 min 0 lux 7,7 C 9,3 C
20.05.2004 02:50 9,3 C 10,3 C 90 % 1021 hPa 0,0 l/m 0,0 m/s (0 Bft) W-SW 245 0,00 min 0 lux 7,7 C 9,3 C
20.05.2004 02:55 8,9 C 10,2 C 91 % 1021 hPa 0,0 l/m 0,0 m/s (0 Bft) W-SW 245 0,00 min 0 lux 7,5 C 8,9 C
20.05.2004 03:00 8,8 C 10,1 C 91 % 1021 hPa 0,0 l/m 0,0 m/s (0 Bft) W-SW 245 0,00 min 0 lux 7,4 C 8,8 C
20.05.2004 03:05 8,8 C 10,1 C 91 % 1021 hPa 0,0 l/m 0,0 m/s (0 Bft) W-SW 245 0,00 min 0 lux 7,4 C 8,8 C
20.05.2004 03:10 8,7 C 10,0 C 91 % 1021 hPa 0,0 l/m 0,0 m/s (0 Bft) W-SW 245 0,00 min 0 lux 7,3 C 8,7 C
20.05.2004 03:15 8,6 C 9,9 C 91 % 1021 hPa 0,0 l/m 0,0 m/s (0 Bft) W-SW 245 0,00 min 0 lux 7,2 C 8,6 C
20.05.2004 03:20 8,7 C 9,9 C 91 % 1021 hPa 0,0 l/m 0,0 m/s (0 Bft) W-SW 245 0,00 min 0 lux 7,3 C 8,7 C
20.05.2004 03:25 8,5 C 9,7 C 92 % 1021 hPa 0,0 l/m 0,0 m/s (0 Bft) W-SW 245 0,00 min 0 lux 7,3 C 8,5 C
20.05.2004 03:30 8,4 C 9,6 C 92 % 1021 hPa 0,0 l/m 0,0 m/s (0 Bft) W-SW 245 0,00 min 0 lux 7,2 C 8,4 C
20.05.2004 03:35 8,3 C 9,6 C 92 % 1021 hPa 0,0 l/m 0,0 m/s (0 Bft) W-SW 245 0,00 min 0 lux 7,1 C 8,3 C
20.05.2004 03:40 8,3 C 9,5 C 92 % 1021 hPa 0,0 l/m 0,0 m/s (0 Bft) W-SW 245 0,00 min 0 lux 7,1 C 8,3 C
20.05.2004 03:45 8,1 C 9,5 C 91 % 1021 hPa 0,0 l/m 0,0 m/s (0 Bft) W-SW 245 0,00 min 0 lux 6,7 C 8,1 C
20.05.2004 03:50 8,1 C 9,3 C 91 % 1021 hPa 0,0 l/m 0,0 m/s (0 Bft) W-SW 245 0,00 min 0 lux 6,7 C 8,1 C
20.05.2004 03:55 8,0 C 9,3 C 91 % 1021 hPa 0,0 l/m 0,0 m/s (0 Bft) W-SW 245 0,00 min 0 lux 6,6 C 8,0 C
20.05.2004 04:00 7,9 C 9,2 C 92 % 1021 hPa 0,0 l/m 0,0 m/s (0 Bft) W-SW 245 0,00 min 0 lux 6,7 C 7,9 C
20.05.2004 04:05 7,9 C 9,2 C 92 % 1021 hPa 0,0 l/m 0,0 m/s (0 Bft) W-SW 245 0,00 min 0 lux 6,7 C 7,9 C
20.05.2004 04:10 7,7 C 9,1 C 92 % 1021 hPa 0,0 l/m 0,0 m/s (0 Bft) W-SW 245 0,00 min 0 lux 6,5 C 7,7 C
20.05.2004 04:15 7,7 C 9,0 C 92 % 1021 hPa 0,0 l/m 0,0 m/s (0 Bft) W-SW 245 0,00 min 0 lux 6,5 C 7,7 C
20.05.2004 04:20 7,9 C 8,9 C 92 % 1021 hPa 0,0 l/m 0,0 m/s (0 Bft) W-SW 245 0,00 min 0 lux 6,7 C 7,9 C
20.05.2004 04:25 7,6 C 8,8 C 92 % 1021 hPa 0,0 l/m 0,0 m/s (0 Bft) W-SW 245 0,00 min 0 lux 6,4 C 7,6 C
20.05.2004 04:30 7,5 C 8,8 C 92 % 1021 hPa 0,0 l/m 0,0 m/s (0 Bft) W-SW 245 0,00 min 0 lux 6,3 C 7,5 C
20.05.2004 04:35 7,6 C 8,7 C 93 % 1021 hPa 0,0 l/m 0,0 m/s (0 Bft) W-SW 245 0,00 min 0 lux 6,5 C 7,6 C
20.05.2004 04:40 7,5 C 8,6 C 93 % 1021 hPa 0,0 l/m 0,0 m/s (0 Bft) W-SW 245 0,00 min 0 lux 6,4 C 7,5 C
20.05.2004 04:45 7,4 C 8,6 C 93 % 1021 hPa 0,0 l/m 0,0 m/s (0 Bft) W-SW 245 0,00 min 0 lux 6,3 C 7,4 C
20.05.2004 04:50 7,4 C 8,5 C 93 % 1021 hPa 0,0 l/m 0,0 m/s (0 Bft) W-SW 245 0,00 min 0 lux 6,3 C 7,4 C
20.05.2004 04:55 7,3 C 8,5 C 93 % 1021 hPa 0,0 l/m 0,0 m/s (0 Bft) W-SW 250 0,00 min 0 lux 6,2 C 7,3 C
20.05.2004 05:00 7,3 C 8,4 C 93 % 1021 hPa 0,0 l/m 0,0 m/s (0 Bft) W-SW 250 0,00 min 0 lux 6,2 C 7,3 C
20.05.2004 05:05 7,2 C 8,3 C 93 % 1021 hPa 0,0 l/m 0,0 m/s (0 Bft) W-SW 245 0,00 min 0 lux 6,1 C 7,2 C
20.05.2004 05:10 7,0 C 8,2 C 93 % 1021 hPa 0,0 l/m 0,0 m/s (0 Bft) W-SW 245 0,00 min 55 lux 5,9 C 7,0 C
20.05.2004 05:15 6,9 C 8,2 C 94 % 1021 hPa 0,0 l/m 0,0 m/s (0 Bft) W-SW 245 0,00 min 96 lux 6,0 C 6,9 C
20.05.2004 05:20 6,8 C 8,1 C 94 % 1021 hPa 0,0 l/m 0,0 m/s (0 Bft) W-SW 245 0,00 min 165 lux 5,9 C 6,8 C
20.05.2004 05:25 6,8 C 8,1 C 94 % 1021 hPa 0,0 l/m 0,0 m/s (0 Bft) W-SW 245 0,00 min 270 lux 5,9 C 6,8 C
20.05.2004 05:30 6,8 C 8,0 C 94 % 1021 hPa 0,0 l/m 0,0 m/s (0 Bft) W-SW 245 0,00 min 423 lux 5,9 C 6,8 C
20.05.2004 05:35 6,8 C 8,0 C 94 % 1021 hPa 0,0 l/m 0,0 m/s (0 Bft) W-SW 245 0,00 min 636 lux 5,9 C 6,8 C
20.05.2004 05:40 6,7 C 7,9 C 94 % 1021 hPa 0,0 l/m 0,0 m/s (0 Bft) W-SW 245 0,00 min 636 lux 5,8 C 6,7 C
20.05.2004 05:45 6,7 C 7,8 C 94 % 1021 hPa 0,0 l/m 0,0 m/s (0 Bft) W-SW 245 0,00 min 1,10 klux 5,8 C 6,7 C
20.05.2004 05:50 6,5 C 7,7 C 94 % 1021 hPa 0,0 l/m 0,0 m/s (0 Bft) W-SW 245 0,00 min 1,50 klux 5,6 C 6,5 C
20.05.2004 05:55 6,5 C 7,7 C 94 % 1021 hPa 0,0 l/m 0,0 m/s (0 Bft) W-SW 245 0,00 min 1,97 klux 5,6 C 6,5 C
20.05.2004 06:00 6,5 C 7,6 C 93 % 1021 hPa 0,0 l/m 0,0 m/s (0 Bft) W-SW 245 0,00 min 2,89 klux 5,5 C 6,5 C
20.05.2004 06:05 6,5 C 7,6 C 94 % 1021 hPa 0,0 l/m 0,0 m/s (0 Bft) W-SW 245 0,00 min 3,47 klux 5,6 C 6,5 C
20.05.2004 06:10 6,6 C 7,7 C 93 % 1021 hPa 0,0 l/m 0,0 m/s (0 Bft) W-SW 245 0,00 min 4,08 klux 5,6 C 6,6 C
20.05.2004 06:15 6,7 C 7,6 C 94 % 1021 hPa 0,0 l/m 0,0 m/s (0 Bft) W-SW 245 0,00 min 4,74 klux 5,8 C 6,7 C
20.05.2004 06:20 6,7 C 7,5 C 94 % 1021 hPa 0,0 l/m 0,0 m/s (0 Bft) W-SW 245 0,00 min 6,39 klux 5,8 C 6,7 C
20.05.2004 06:25 6,8 C 7,5 C 94 % 1021 hPa 0,0 l/m 0,0 m/s (0 Bft) W-SW 245 5,00 min 11,1 klux 5,9 C 6,8 C
20.05.2004 06:30 7,2 C 7,5 C 93 % 1021 hPa 0,0 l/m 0,0 m/s (0 Bft) W-SW 245 5,00 min 12,9 klux 6,1 C 7,2 C
20.05.2004 06:35 8,4 C 7,5 C 91 % 1021 hPa 0,0 l/m 0,0 m/s (0 Bft) W-SW 245 5,00 min 13,7 klux 7,0 C 8,4 C
20.05.2004 06:40 9,8 C 7,5 C 83 % 1021 hPa 0,0 l/m 0,0 m/s (0 Bft) W-SW 245 5,00 min 15,4 klux 7,1 C 9,8 C
20.05.2004 06:45 10,1 C 7,6 C 74 % 1021 hPa 0,0 l/m 0,0 m/s (0 Bft) W-SW 245 5,00 min 17,3 klux 5,7 C 10,1 C
20.05.2004 06:50 10,4 C 7,6 C 72 % 1021 hPa 0,0 l/m 0,0 m/s (0 Bft) W-SW 245 5,00 min 19,2 klux 5,6 C 10,4 C
20.05.2004 06:55 11,8 C 7,7 C 66 % 1021 hPa 0,0 l/m 0,0 m/s (0 Bft) W-SW 245 5,00 min 21,3 klux 5,7 C 11,8 C
20.05.2004 07:00 11,5 C 7,7 C 63 % 1021 hPa 0,0 l/m 0,0 m/s (0 Bft) W-SW 245 5,00 min 23,2 klux 4,7 C 11,5 C
20.05.2004 07:05 11,9 C 7,8 C 59 % 1021 hPa 0,0 l/m 0,0 m/s (0 Bft) W-SW 245 5,00 min 24,7 klux 4,1 C 11,9 C
20.05.2004 07:10 12,8 C 7,9 C 60 % 1021 hPa 0,0 l/m 0,0 m/s (0 Bft) W-SW 245 5,00 min 26,9 klux 5,2 C 12,8 C
20.05.2004 07:15 13,9 C 7,9 C 56 % 1021 hPa 0,0 l/m 0,0 m/s (0 Bft) W-SW 245 5,00 min 28,3 klux 5,3 C 13,9 C
20.05.2004 07:20 13,7 C 8,0 C 55 % 1021 hPa 0,0 l/m 0,0 m/s (0 Bft) W-SW 245 5,00 min 29,6 klux 4,8 C 13,7 C
20.05.2004 07:25 14,4 C 8,1 C 54 % 1021 hPa 0,0 l/m 0,0 m/s (0 Bft) W-SW 250 5,00 min 29,6 klux 5,2 C 14,4 C
20.05.2004 07:30 15,0 C 8,3 C 51 % 1021 hPa 0,0 l/m 0,0 m/s (0 Bft) W-SW 245 5,00 min 32,2 klux 4,9 C 15,0 C
20.05.2004 07:35 14,8 C 8,3 C 52 % 1021 hPa 0,0 l/m 0,0 m/s (0 Bft) W-SW 245 5,00 min 33,7 klux 5,0 C 14,8 C
20.05.2004 07:40 14,8 C 8,6 C 52 % 1021 hPa 0,0 l/m 0,0 m/s (0 Bft) W-SW 245 5,00 min 35,3 klux 5,0 C 14,8 C
20.05.2004 07:45 15,0 C 8,7 C 52 % 1021 hPa 0,0 l/m 0,0 m/s (0 Bft) SW22.5 215 5,00 min 36,7 klux 5,2 C 15,0 C
20.05.2004 07:50 16,1 C 8,8 C 50 % 1021 hPa 0,0 l/m 0,0 m/s (0 Bft) SW 235 5,00 min 37,8 klux 5,7 C 16,1 C
20.05.2004 07:55 16,1 C 9,0 C 50 % 1021 hPa 0,0 l/m 0,0 m/s (0 Bft) SW 235 5,00 min 38,2 klux 5,7 C 16,1 C
20.05.2004 08:00 16,4 C 9,2 C 47 % 1021 hPa 0,0 l/m 0,0 m/s (0 Bft) SW 235 5,00 min 41,3 klux 5,1 C 16,4 C
20.05.2004 08:05 17,0 C 9,4 C 45 % 1021 hPa 0,0 l/m 0,0 m/s (0 Bft) SW 235 5,00 min 42,1 klux 5,0 C 17,0 C
20.05.2004 08:10 17,7 C 9,5 C 45 % 1021 hPa 0,0 l/m 0,0 m/s (0 Bft) SW 235 5,00 min 44,0 klux 5,6 C 17,7 C
20.05.2004 08:15 18,1 C 9,8 C 45 % 1021 hPa 0,0 l/m 0,0 m/s (0 Bft) SW 235 5,00 min 45,5 klux 6,0 C 18,1 C
20.05.2004 08:20 17,2 C 10,0 C 46 % 1021 hPa 0,0 l/m 0,0 m/s (0 Bft) SW 235 5,00 min 46,1 klux 5,5 C 17,2 C
20.05.2004 08:25 18,5 C 10,1 C 46 % 1021 hPa 0,0 l/m 0,0 m/s (0 Bft) SW 230 5,00 min 48,3 klux 6,7 C 18,5 C
20.05.2004 08:30 16,9 C 10,3 C 46 % 1021 hPa 0,0 l/m 0,0 m/s (0 Bft) SW45 230 5,00 min 49,5 klux 5,2 C 16,9 C
20.05.2004 08:35 14,7 C 10,5 C 48 % 1021 hPa 0,0 l/m 1,2 m/s (1 Bft) W-SW22.5 240 5,00 min 50,5 klux 3,8 C 14,7 C
20.05.2004 08:40 14,3 C 10,5 C 64 % 1021 hPa 0,0 l/m 0,8 m/s (0 Bft) SW 225 5,00 min 52,8 klux 7,6 C 14,3 C
20.05.2004 08:45 14,3 C 11,1 C 64 % 1021 hPa 0,0 l/m 0,4 m/s (0 Bft) W-SW22.5 245 5,00 min 54,3 klux 7,6 C 14,3 C
20.05.2004 08:50 14,5 C 11,5 C 63 % 1021 hPa 0,0 l/m 1,3 m/s (1 Bft) SW22.5 235 5,00 min 55,7 klux 7,5 C 14,5 C
20.05.2004 08:55 14,6 C 11,9 C 64 % 1021 hPa 0,0 l/m 1,3 m/s (1 Bft) SW22.5 225 5,00 min 57,2 klux 7,9 C 14,6 C
20.05.2004 09:00 14,8 C 12,0 C 64 % 1020 hPa 0,0 l/m 0,1 m/s (0 Bft) W-SW 250 5,00 min 58,9 klux 8,1 C 14,8 C
20.05.2004 09:05 15,2 C 12,2 C 61 % 1020 hPa 0,0 l/m 1,1 m/s (1 Bft) SW67.5 230 5,00 min 60,4 klux 7,7 C 15,2 C
20.05.2004 09:10 15,6 C 12,6 C 61 % 1020 hPa 0,0 l/m 1,5 m/s (1 Bft) SW45 235 5,00 min 60,8 klux 8,1 C 15,6 C
20.05.2004 09:15 15,7 C 12,8 C 58 % 1020 hPa 0,0 l/m 1,8 m/s (1 Bft) W-SW22.5 240 5,00 min 62,2 klux 7,5 C 15,7 C
20.05.2004 09:20 16,2 C 13,1 C 56 % 1020 hPa 0,0 l/m 1,7 m/s (1 Bft) SW45 215 5,00 min 63,5 klux 7,4 C 16,2 C
20.05.2004 09:25 16,2 C 13,4 C 53 % 1020 hPa 0,0 l/m 1,9 m/s (1 Bft) W-SW45 240 5,00 min 64,6 klux 6,6 C 15,9 C
20.05.2004 09:30 16,4 C 13,8 C 51 % 1020 hPa 0,0 l/m 1,9 m/s (1 Bft) W-SW45 240 5,00 min 65,8 klux 6,2 C 16,1 C
20.05.2004 09:35 16,6 C 13,9 C 49 % 1020 hPa 0,0 l/m 2,3 m/s (1 Bft) S-SW45 210 5,00 min 67,1 klux 5,8 C 15,6 C
20.05.2004 09:40 17,0 C 14,1 C 48 % 1020 hPa 0,0 l/m 2,2 m/s (1 Bft) SW45 235 5,00 min 68,3 klux 5,9 C 16,2 C
20.05.2004 09:45 17,5 C 14,5 C 50 % 1020 hPa 0,0 l/m 1,6 m/s (1 Bft) S45 185 5,00 min 69,6 klux 7,0 C 17,5 C
20.05.2004 09:50 17,6 C 14,7 C 49 % 1020 hPa 0,0 l/m 1,4 m/s (1 Bft) SW45 215 5,00 min 69,9 klux 6,8 C 17,6 C
20.05.2004 09:55 17,7 C 15,5 C 47 % 1020 hPa 0,0 l/m 2,6 m/s (1 Bft) SW45 220 5,00 min 71,8 klux 6,2 C 16,3 C
20.05.2004 10:00 17,7 C 16,6 C 49 % 1020 hPa 0,0 l/m 2,4 m/s (1 Bft) S-SW45 210 5,00 min 73,2 klux 6,9 C 16,7 C
20.05.2004 10:05 17,9 C 17,2 C 48 % 1020 hPa 0,0 l/m 3,4 m/s (1 Bft) S-SW45 205 5,00 min 73,3 klux 6,7 C 15,6 C
20.05.2004 10:10 18,0 C 18,2 C 47 % 1020 hPa 0,0 l/m 2,7 m/s (1 Bft) SW45 235 5,00 min 74,4 klux 6,5 C 16,5 C
20.05.2004 10:15 18,2 C 19,2 C 47 % 1020 hPa 0,0 l/m 6,2 m/s (2 Bft) SW67.5 230 5,00 min 75,8 klux 6,7 C 13,4 C
20.05.2004 10:20 18,3 C 19,8 C 47 % 1020 hPa 0,0 l/m 3,6 m/s (1 Bft) W-SW45 240 5,00 min 76,2 klux 6,8 C 15,7 C
20.05.2004 10:25 18,3 C 19,8 C 47 % 1020 hPa 0,0 l/m 4,5 m/s (1 Bft) W-SW45 250 5,00 min 77,8 klux 6,8 C 14,9 C
20.05.2004 10:30 18,7 C 20,7 C 47 % 1020 hPa 0,0 l/m 3,8 m/s (1 Bft) W-SW45 250 5,00 min 81,3 klux 7,2 C 16,0 C
20.05.2004 10:35 18,4 C 21,2 C 46 % 1020 hPa 0,0 l/m 4,3 m/s (1 Bft) W-SW45 250 5,00 min 83,0 klux 6,6 C 15,2 C
20.05.2004 10:40 18,6 C 21,4 C 46 % 1020 hPa 0,0 l/m 3,2 m/s (1 Bft) W-SW67.5 250 5,00 min 84,5 klux 6,8 C 16,5 C
20.05.2004 10:45 18,3 C 21,5 C 46 % 1020 hPa 0,0 l/m 4,5 m/s (1 Bft) W45 260 0,00 min 27,6 klux 6,5 C 14,9 C
20.05.2004 10:50 17,9 C 21,0 C 47 % 1020 hPa 0,0 l/m 4,3 m/s (1 Bft) W-NW22.5 295 5,00 min 88,5 klux 6,4 C 14,6 C
20.05.2004 10:55 17,9 C 21,2 C 47 % 1020 hPa 0,0 l/m 2,7 m/s (1 Bft) W67.5 265 5,00 min 88,5 klux 6,4 C 16,5 C
20.05.2004 11:00 18,6 C 21,6 C 45 % 1020 hPa 0,0 l/m 4,4 m/s (1 Bft) W67.5 275 0,00 min 42,8 klux 6,4 C 15,3 C
20.05.2004 11:05 18,2 C 21,4 C 45 % 1020 hPa 0,0 l/m 4,3 m/s (1 Bft) W67.5 280 5,00 min 96,4 klux 6,1 C 14,9 C
20.05.2004 11:10 18,7 C 21,9 C 46 % 1020 hPa 0,0 l/m 2,4 m/s (1 Bft) W-NW67.5 295 5,00 min 100 klux 6,8 C 17,7 C
20.05.2004 11:15 19,0 C 22,3 C 43 % 1020 hPa 0,0 l/m 4,2 m/s (1 Bft) W67.5 280 5,00 min 70,3 klux 6,1 C 16,0 C
20.05.2004 11:20 19,3 C 22,5 C 45 % 1020 hPa 0,0 l/m 4,4 m/s (1 Bft) W22.5 260 5,00 min 93,8 klux 7,1 C 16,2 C
20.05.2004 11:25 19,2 C 22,9 C 43 % 1020 hPa 0,0 l/m 6,6 m/s (2 Bft) W-NW45 300 5,00 min 92,3 klux 6,3 C 14,5 C
20.05.2004 11:30 19,3 C 23,2 C 43 % 1020 hPa 0,0 l/m 6,0 m/s (2 Bft) W22.5 265 5,00 min 93,1 klux 6,4 C 15,0 C
20.05.2004 11:35 19,4 C 23,7 C 44 % 1020 hPa 0,0 l/m 4,0 m/s (1 Bft) W-SW22.5 250 5,00 min 96,8 klux 6,8 C 16,6 C
20.05.2004 11:40 19,6 C 24,0 C 43 % 1020 hPa 0,0 l/m 3,2 m/s (1 Bft) W45 265 5,00 min 100 klux 6,7 C 17,7 C
20.05.2004 11:45 19,8 C 23,7 C 44 % 1020 hPa 0,0 l/m 2,2 m/s (1 Bft) S67.5 185 5,00 min 104 klux 7,2 C 19,2 C
20.05.2004 11:50 19,0 C 23,5 C 43 % 1019 hPa 0,0 l/m 8,9 m/s (2 Bft) W-SW22.5 245 0,00 min 22,5 klux 6,1 C 13,1 C
20.05.2004 11:55 19,5 C 23,3 C 41 % 1020 hPa 0,0 l/m 4,4 m/s (1 Bft) W45 260 5,00 min 101 klux 5,9 C 16,4 C
20.05.2004 12:00 19,3 C 23,9 C 40 % 1020 hPa 0,0 l/m 4,2 m/s (1 Bft) W-SW45 250 5,00 min 103 klux 5,4 C 16,4 C
20.05.2004 12:05 20,1 C 24,2 C 41 % 1020 hPa 0,0 l/m 0,2 m/s (0 Bft) SW22.5 235 5,00 min 107 klux 6,4 C 20,1 C
20.05.2004 12:10 19,7 C 24,5 C 41 % 1019 hPa 0,0 l/m 1,0 m/s (0 Bft) SW67.5 215 0,00 min 50,0 klux 6,1 C 19,7 C
20.05.2004 12:15 19,3 C 24,0 C 42 % 1019 hPa 0,0 l/m 5,8 m/s (1 Bft) W22.5 270 5,00 min 109 klux 6,1 C 15,2 C
20.05.2004 12:20 19,7 C 23,9 C 41 % 1019 hPa 0,0 l/m 4,3 m/s (1 Bft) W45 280 5,00 min 108 klux 6,1 C 16,7 C
20.05.2004 12:25 19,8 C 24,0 C 41 % 1019 hPa 0,0 l/m 3,7 m/s (1 Bft) W45 275 5,00 min 108 klux 6,2 C 17,4 C
20.05.2004 12:30 20,1 C 24,6 C 40 % 1019 hPa 0,0 l/m 5,0 m/s (1 Bft) W45 270 5,00 min 111 klux 6,1 C 16,7 C
20.05.2004 12:35 20,1 C 24,2 C 40 % 1019 hPa 0,0 l/m 5,1 m/s (1 Bft) W22.5 260 0,00 min 39,6 klux 6,1 C 16,6 C
20.05.2004 12:40 19,5 C 24,0 C 42 % 1019 hPa 0,0 l/m 4,9 m/s (1 Bft) W45 270 5,00 min 106 klux 6,2 C 16,0 C
20.05.2004 12:45 19,5 C 24,0 C 41 % 1019 hPa 0,0 l/m 2,9 m/s (1 Bft) W45 265 0,00 min 40,6 klux 5,9 C 18,0 C
20.05.2004 12:50 19,5 C 23,4 C 41 % 1019 hPa 0,0 l/m 4,5 m/s (1 Bft) W22.5 265 0,00 min 33,1 klux 5,9 C 16,3 C
20.05.2004 12:55 20,4 C 23,4 C 41 % 1019 hPa 0,0 l/m 2,7 m/s (1 Bft) W45 270 5,00 min 111 klux 6,7 C 19,2 C
20.05.2004 13:00 19,8 C 23,5 C 39 % 1019 hPa 0,0 l/m 4,0 m/s (1 Bft) W45 270 0,00 min 31,0 klux 5,4 C 17,1 C
20.05.2004 13:05 20,8 C 24,0 C 41 % 1019 hPa 0,0 l/m 4,6 m/s (1 Bft) W-SW22.5 255 5,00 min 112 klux 7,1 C 17,9 C
20.05.2004 13:10 21,6 C 24,7 C 40 % 1019 hPa 0,0 l/m 4,0 m/s (1 Bft) W-SW67.5 245 5,00 min 108 klux 7,4 C 19,3 C
20.05.2004 13:15 21,5 C 24,9 C 36 % 1019 hPa 0,0 l/m 5,2 m/s (1 Bft) W67.5 275 5,00 min 112 klux 5,8 C 18,4 C
20.05.2004 13:20 20,9 C 24,2 C 38 % 1019 hPa 0,0 l/m 5,0 m/s (1 Bft) W-NW45 285 0,00 min 26,9 klux 6,0 C 17,7 C
20.05.2004 13:25 19,9 C 23,7 C 41 % 1019 hPa 0,0 l/m 3,6 m/s (1 Bft) NW45 305 5,00 min 106 klux 6,3 C 17,7 C
20.05.2004 13:30 20,7 C 24,0 C 42 % 1019 hPa 0,0 l/m 2,1 m/s (1 Bft) NW67.5 305 5,00 min 108 klux 7,3 C 20,2 C
20.05.2004 13:35 19,8 C 23,9 C 41 % 1019 hPa 0,0 l/m 2,3 m/s (1 Bft) N-NO67.5 15 0,00 min 24,9 klux 6,2 C 19,1 C
20.05.2004 13:40 19,8 C 23,2 C 41 % 1019 hPa 0,0 l/m 5,0 m/s (1 Bft) W-NW45 295 0,00 min 21,8 klux 6,2 C 16,3 C
20.05.2004 13:45 19,5 C 22,9 C 41 % 1019 hPa 0,0 l/m 4,6 m/s (1 Bft) W45 260 5,00 min 98,2 klux 5,9 C 16,3 C
20.05.2004 13:50 20,5 C 23,7 C 39 % 1018 hPa 0,0 l/m 3,1 m/s (1 Bft) W45 260 5,00 min 104 klux 6,1 C 18,8 C
20.05.2004 13:55 21,1 C 25,1 C 39 % 1018 hPa 0,0 l/m 1,9 m/s (1 Bft) N-NW67.5 345 5,00 min 106 klux 6,6 C 20,9 C
20.05.2004 14:00 21,2 C 25,4 C 37 % 1018 hPa 0,0 l/m 0,3 m/s (0 Bft) SW67.5 225 0,00 min 32,2 klux 5,9 C 21,2 C
20.05.2004 14:05 20,4 C 25,1 C 36 % 1018 hPa 0,0 l/m 6,0 m/s (2 Bft) W-SW45 255 0,00 min 28,6 klux 4,8 C 16,4 C
20.05.2004 14:10 20,6 C 24,8 C 38 % 1018 hPa 0,0 l/m 4,8 m/s (1 Bft) W45 270 5,00 min 110 klux 5,8 C 17,5 C
20.05.2004 14:15 21,5 C 25,6 C 36 % 1018 hPa 0,0 l/m 2,7 m/s (1 Bft) W-SW67.5 250 5,00 min 109 klux 5,8 C 20,4 C
20.05.2004 14:20 22,2 C 25,9 C 34 % 1018 hPa 0,0 l/m 6,0 m/s (2 Bft) W-SW45 245 5,00 min 109 klux 5,6 C 18,8 C
20.05.2004 14:25 21,4 C 25,8 C 32 % 1018 hPa 0,0 l/m 4,8 m/s (1 Bft) W-SW67.5 250 0,00 min 26,8 klux 4,0 C 18,5 C
20.05.2004 14:30 21,6 C 25,7 C 32 % 1018 hPa 0,0 l/m 3,6 m/s (1 Bft) NW67.5 305 5,00 min 109 klux 4,2 C 19,7 C
20.05.2004 14:35 21,9 C 26,3 C 33 % 1018 hPa 0,0 l/m 4,3 m/s (1 Bft) W-NW67.5 295 5,00 min 109 klux 4,9 C 19,5 C
20.05.2004 14:40 21,2 C 26,1 C 36 % 1018 hPa 0,0 l/m 4,6 m/s (1 Bft) W45 275 0,00 min 29,5 klux 5,5 C 18,4 C
20.05.2004 14:45 21,0 C 25,3 C 35 % 1018 hPa 0,0 l/m 3,6 m/s (1 Bft) W-NW45 285 0,00 min 48,8 klux 5,0 C 18,9 C
20.05.2004 14:50 21,4 C 25,9 C 36 % 1018 hPa 0,0 l/m 2,0 m/s (1 Bft) W45 280 5,00 min 107 klux 5,7 C 21,1 C
20.05.2004 14:55 22,0 C 26,5 C 36 % 1018 hPa 0,0 l/m 1,6 m/s (1 Bft) W-SW45 255 5,00 min 103 klux 6,2 C 22,0 C
20.05.2004 15:00 22,6 C 27,1 C 35 % 1018 hPa 0,0 l/m 3,9 m/s (1 Bft) W-NW67.5 285 5,00 min 106 klux 6,4 C 20,6 C
20.05.2004 15:05 21,6 C 26,0 C 34 % 1018 hPa 0,0 l/m 4,8 m/s (1 Bft) W45 275 0,00 min 30,8 klux 5,1 C 18,8 C
20.05.2004 15:10 21,1 C 25,6 C 36 % 1018 hPa 0,0 l/m 4,0 m/s (1 Bft) W22.5 270 5,00 min 101 klux 5,4 C 18,7 C
20.05.2004 15:15 21,4 C 25,9 C 36 % 1018 hPa 0,0 l/m 4,0 m/s (1 Bft) W22.5 270 5,00 min 99 klux 5,7 C 19,1 C
20.05.2004 15:20 21,9 C 26,1 C 35 % 1018 hPa 0,0 l/m 4,8 m/s (1 Bft) NW67.5 305 0,00 min 26,5 klux 5,7 C 19,1 C
20.05.2004 15:25 21,3 C 25,1 C 35 % 1018 hPa 0,0 l/m 4,9 m/s (1 Bft) W-NW45 300 0,00 min 30,0 klux 5,2 C 18,3 C
20.05.2004 15:30 20,8 C 24,6 C 36 % 1017 hPa 0,0 l/m 5,7 m/s (1 Bft) W-NW45 295 0,00 min 25,1 klux 5,2 C 17,2 C
20.05.2004 15:35 20,7 C 24,2 C 38 % 1017 hPa 0,0 l/m 3,1 m/s (1 Bft) W45 270 5,00 min 90,1 klux 5,9 C 19,1 C
20.05.2004 15:40 21,1 C 24,3 C 37 % 1017 hPa 0,0 l/m 1,6 m/s (1 Bft) N-NW67.5 335 0,00 min 25,6 klux 5,8 C 21,1 C
20.05.2004 15:45 20,9 C 24,0 C 38 % 1017 hPa 0,0 l/m 4,2 m/s (1 Bft) W-NW45 285 0,00 min 30,5 klux 6,0 C 18,3 C
20.05.2004 15:50 20,9 C 23,7 C 37 % 1017 hPa 0,0 l/m 4,1 m/s (1 Bft) W-NW45 285 0,00 min 25,0 klux 5,7 C 18,4 C
20.05.2004 15:55 20,6 C 23,6 C 39 % 1017 hPa 0,0 l/m 3,8 m/s (1 Bft) NW67.5 305 5,00 min 94,7 klux 6,2 C 18,3 C
20.05.2004 16:00 21,6 C 24,0 C 39 % 1017 hPa 0,0 l/m 3,1 m/s (1 Bft) W-NW45 290 5,00 min 74,9 klux 7,0 C 20,1 C
20.05.2004 16:05 21,6 C 25,2 C 35 % 1017 hPa 0,0 l/m 3,1 m/s (1 Bft) W45 270 0,00 min 33,1 klux 5,5 C 20,1 C
20.05.2004 16:10 21,4 C 25,7 C 33 % 1017 hPa 0,0 l/m 6,1 m/s (2 Bft) W-SW22.5 255 5,00 min 93,1 klux 4,5 C 17,7 C
20.05.2004 16:15 21,1 C 25,4 C 34 % 1017 hPa 0,0 l/m 4,9 m/s (1 Bft) W-SW45 245 0,00 min 36,3 klux 4,6 C 18,0 C
20.05.2004 16:20 20,9 C 25,1 C 34 % 1017 hPa 0,0 l/m 5,3 m/s (1 Bft) W45 270 5,00 min 88,1 klux 4,4 C 17,5 C
20.05.2004 16:25 21,0 C 24,6 C 35 % 1017 hPa 0,0 l/m 5,1 m/s (1 Bft) W-NW45 290 5,00 min 53,7 klux 5,0 C 17,8 C
20.05.2004 16:30 21,6 C 25,8 C 34 % 1017 hPa 0,0 l/m 5,1 m/s (1 Bft) W45 260 5,00 min 85,6 klux 5,1 C 18,5 C
20.05.2004 16:35 22,1 C 26,7 C 34 % 1017 hPa 0,0 l/m 4,1 m/s (1 Bft) W-SW45 250 5,00 min 80,6 klux 5,5 C 19,8 C
20.05.2004 16:40 21,6 C 26,4 C 33 % 1017 hPa 0,0 l/m 5,0 m/s (1 Bft) W-SW45 255 0,00 min 23,2 klux 4,6 C 18,6 C
20.05.2004 16:45 20,6 C 25,2 C 35 % 1017 hPa 0,0 l/m 6,2 m/s (2 Bft) W22.5 265 0,00 min 19,6 klux 4,6 C 16,6 C
20.05.2004 16:50 20,8 C 24,5 C 35 % 1017 hPa 0,0 l/m 4,5 m/s (1 Bft) W45 260 5,00 min 74,7 klux 4,8 C 17,9 C
20.05.2004 16:55 21,2 C 25,0 C 33 % 1017 hPa 0,0 l/m 4,7 m/s (1 Bft) W45 260 5,00 min 76,8 klux 4,3 C 18,3 C
20.05.2004 17:00 21,6 C 26,1 C 33 % 1017 hPa 0,0 l/m 2,7 m/s (1 Bft) W45 260 0,00 min 29,8 klux 4,6 C 20,5 C
20.05.2004 17:05 21,4 C 26,2 C 30 % 1017 hPa 0,0 l/m 6,6 m/s (2 Bft) W22.5 265 5,00 min 74,4 klux 3,1 C 17,5 C
20.05.2004 17:10 21,1 C 25,6 C 31 % 1017 hPa 0,0 l/m 5,2 m/s (1 Bft) W45 265 0,00 min 39,6 klux 3,3 C 17,8 C
20.05.2004 17:15 21,3 C 25,3 C 34 % 1016 hPa 0,0 l/m 2,9 m/s (1 Bft) W22.5 275 0,00 min 26,4 klux 4,8 C 20,0 C
20.05.2004 17:20 21,7 C 25,7 C 34 % 1016 hPa 0,0 l/m 4,6 m/s (1 Bft) W-NW67.5 290 5,00 min 71,3 klux 5,2 C 19,0 C
20.05.2004 17:25 22,0 C 26,5 C 32 % 1016 hPa 0,0 l/m 4,8 m/s (1 Bft) W45 270 5,00 min 67,9 klux 4,5 C 19,3 C
20.05.2004 17:30 22,0 C 27,0 C 32 % 1016 hPa 0,0 l/m 4,1 m/s (1 Bft) W45 275 5,00 min 65,3 klux 4,5 C 19,7 C
20.05.2004 17:35 21,9 C 27,6 C 31 % 1016 hPa 0,0 l/m 5,2 m/s (1 Bft) W45 265 5,00 min 63,6 klux 4,0 C 18,9 C
20.05.2004 17:40 22,2 C 28,0 C 31 % 1016 hPa 0,0 l/m 4,4 m/s (1 Bft) W-SW22.5 255 5,00 min 63,5 klux 4,3 C 19,8 C
20.05.2004 17:45 22,1 C 28,2 C 31 % 1016 hPa 0,0 l/m 3,9 m/s (1 Bft) W45 275 5,00 min 61,6 klux 4,2 C 20,0 C
20.05.2004 17:50 22,0 C 28,6 C 31 % 1016 hPa 0,0 l/m 3,5 m/s (1 Bft) W45 275 5,00 min 57,3 klux 4,1 C 20,2 C
20.05.2004 17:55 22,0 C 28,6 C 31 % 1016 hPa 0,0 l/m 4,0 m/s (1 Bft) NW67.5 305 5,00 min 56,0 klux 4,1 C 19,8 C
20.05.2004 18:00 22,0 C 28,9 C 31 % 1016 hPa 0,0 l/m 3,4 m/s (1 Bft) W22.5 265 5,00 min 55,7 klux 4,1 C 20,2 C
20.05.2004 18:05 22,4 C 29,0 C 31 % 1016 hPa 0,0 l/m 4,5 m/s (1 Bft) W45 270 5,00 min 57,6 klux 4,4 C 20,0 C
20.05.2004 18:10 21,9 C 28,7 C 31 % 1016 hPa 0,0 l/m 5,1 m/s (1 Bft) W22.5 260 5,00 min 55,0 klux 4,0 C 18,9 C
20.05.2004 18:15 21,8 C 28,5 C 31 % 1016 hPa 0,0 l/m 6,0 m/s (2 Bft) W45 260 5,00 min 53,0 klux 3,9 C 18,3 C
20.05.2004 18:20 21,6 C 27,8 C 32 % 1016 hPa 0,0 l/m 3,4 m/s (1 Bft) W22.5 260 5,00 min 52,5 klux 4,2 C 19,8 C
20.05.2004 18:25 22,0 C 28,1 C 34 % 1016 hPa 0,0 l/m 2,3 m/s (1 Bft) W67.5 265 5,00 min 54,2 klux 5,4 C 21,4 C
20.05.2004 18:30 22,0 C 28,4 C 34 % 1016 hPa 0,0 l/m 3,7 m/s (1 Bft) W-NW22.5 290 5,00 min 51,8 klux 5,4 C 20,0 C
20.05.2004 18:35 21,7 C 28,3 C 35 % 1016 hPa 0,0 l/m 1,7 m/s (1 Bft) N67.5 5 5,00 min 46,3 klux 5,6 C 21,7 C
20.05.2004 18:40 21,4 C 28,0 C 35 % 1016 hPa 0,0 l/m 3,2 m/s (1 Bft) W-NW45 295 5,00 min 45,6 klux 5,3 C 19,8 C
20.05.2004 18:45 20,8 C 26,8 C 37 % 1016 hPa 0,0 l/m 2,6 m/s (1 Bft) W-NW45 300 0,00 min 18,2 klux 5,6 C 19,7 C
20.05.2004 18:50 20,8 C 26,4 C 37 % 1016 hPa 0,0 l/m 2,1 m/s (1 Bft) W22.5 270 5,00 min 39,4 klux 5,6 C 20,3 C
20.05.2004 18:55 22,6 C 26,4 C 31 % 1016 hPa 0,0 l/m 2,1 m/s (1 Bft) W22.5 265 5,00 min 38,4 klux 4,6 C 22,2 C
20.05.2004 19:00 22,7 C 26,7 C 32 % 1016 hPa 0,0 l/m 1,6 m/s (1 Bft) W22.5 265 5,00 min 32,8 klux 5,2 C 22,7 C
20.05.2004 19:05 23,1 C 26,9 C 31 % 1016 hPa 0,0 l/m 0,0 m/s (0 Bft) N-NW67.5 330 5,00 min 33,1 klux 5,0 C 23,1 C
20.05.2004 19:10 24,1 C 27,1 C 30 % 1016 hPa 0,0 l/m 0,0 m/s (0 Bft) N-NW 345 5,00 min 31,5 klux 5,4 C 24,1 C
20.05.2004 19:15 24,6 C 27,1 C 29 % 1016 hPa 0,0 l/m 0,0 m/s (0 Bft) N-NW 345 5,00 min 25,6 klux 5,4 C 24,6 C
20.05.2004 19:20 24,4 C 27,0 C 29 % 1016 hPa 0,0 l/m 0,1 m/s (0 Bft) NW45 325 0,00 min 19,5 klux 5,2 C 24,4 C
20.05.2004 19:25 22,0 C 26,6 C 32 % 1016 hPa 0,0 l/m 0,1 m/s (0 Bft) W-NW22.5 285 0,00 min 14,7 klux 4,5 C 22,0 C
20.05.2004 19:30 22,6 C 25,7 C 35 % 1016 hPa 0,0 l/m 2,0 m/s (1 Bft) W-NW45 295 5,00 min 24,4 klux 6,4 C 22,3 C
20.05.2004 19:35 22,5 C 25,5 C 35 % 1016 hPa 0,0 l/m 0,1 m/s (0 Bft) W 260 5,00 min 22,8 klux 6,3 C 22,5 C
20.05.2004 19:40 22,5 C 25,1 C 35 % 1016 hPa 0,0 l/m 0,0 m/s (0 Bft) W 260 0,00 min 11,5 klux 6,3 C 22,5 C
20.05.2004 19:45 21,9 C 24,7 C 37 % 1016 hPa 0,0 l/m 0,2 m/s (0 Bft) NW 325 5,00 min 21,4 klux 6,5 C 21,9 C
20.05.2004 19:50 20,8 C 24,0 C 40 % 1015 hPa 0,0 l/m 0,0 m/s (0 Bft) O45 85 0,00 min 12,9 klux 6,7 C 20,8 C
20.05.2004 19:55 20,0 C 23,2 C 42 % 1015 hPa 0,0 l/m 0,0 m/s (0 Bft) O-SO 105 0,00 min 9,9 klux 6,7 C 20,0 C
20.05.2004 20:00 20,3 C 22,9 C 43 % 1015 hPa 0,0 l/m 0,0 m/s (0 Bft) SO 135 5,00 min 17,6 klux 7,3 C 20,3 C
20.05.2004 20:05 21,2 C 22,8 C 41 % 1015 hPa 0,0 l/m 0,0 m/s (0 Bft) W-NW67.5 290 5,00 min 17,6 klux 7,4 C 21,2 C
20.05.2004 20:10 21,5 C 22,8 C 40 % 1016 hPa 0,0 l/m 0,0 m/s (0 Bft) W-NW22.5 290 5,00 min 16,8 klux 7,3 C 21,5 C
20.05.2004 20:15 21,0 C 22,7 C 39 % 1015 hPa 0,0 l/m 0,0 m/s (0 Bft) W 275 5,00 min 14,3 klux 6,5 C 21,0 C
20.05.2004 20:20 19,8 C 22,4 C 42 % 1015 hPa 0,0 l/m 0,1 m/s (0 Bft) W22.5 275 5,00 min 12,7 klux 6,5 C 19,8 C
20.05.2004 20:25 19,1 C 21,9 C 44 % 1015 hPa 0,0 l/m 0,5 m/s (0 Bft) W-NW22.5 295 5,00 min 10,5 klux 6,6 C 19,1 C
20.05.2004 20:30 19,1 C 21,7 C 44 % 1015 hPa 0,0 l/m 0,1 m/s (0 Bft) W22.5 270 5,00 min 8,67 klux 6,6 C 19,1 C
20.05.2004 20:35 19,1 C 21,0 C 44 % 1015 hPa 0,0 l/m 0,0 m/s (0 Bft) W22.5 275 5,00 min 6,82 klux 6,6 C 19,1 C
20.05.2004 20:40 17,8 C 20,5 C 48 % 1015 hPa 0,0 l/m 0,3 m/s (0 Bft) W-NW45 295 0,00 min 5,12 klux 6,6 C 17,8 C
20.05.2004 20:45 17,6 C 20,0 C 49 % 1015 hPa 0,0 l/m 0,0 m/s (0 Bft) W-NW45 295 0,00 min 3,88 klux 6,8 C 17,6 C
20.05.2004 20:50 17,1 C 19,7 C 50 % 1015 hPa 0,0 l/m 0,0 m/s (0 Bft) SW45 235 0,00 min 3,20 klux 6,6 C 17,1 C
20.05.2004 20:55 16,7 C 19,3 C 52 % 1015 hPa 0,0 l/m 0,0 m/s (0 Bft) W 270 0,00 min 2,50 klux 6,8 C 16,7 C
20.05.2004 21:00 16,8 C 18,9 C 53 % 1016 hPa 0,0 l/m 0,0 m/s (0 Bft) W 260 5,00 min 1,93 klux 7,2 C 16,8 C
20.05.2004 21:05 16,5 C 18,7 C 54 % 1016 hPa 0,0 l/m 0,0 m/s (0 Bft) W 260 0,00 min 1,35 klux 7,2 C 16,5 C
20.05.2004 21:10 16,1 C 18,4 C 55 % 1016 hPa 0,0 l/m 0,0 m/s (0 Bft) W 260 0,00 min 896 lux 7,1 C 16,1 C
20.05.2004 21:15 16,2 C 18,0 C 54 % 1016 hPa 0,0 l/m 0,2 m/s (0 Bft) O 100 0,00 min 479 lux 6,9 C 16,2 C
20.05.2004 21:20 15,9 C 17,6 C 57 % 1016 hPa 0,0 l/m 1,8 m/s (1 Bft) O-SO45 110 0,00 min 386 lux 7,4 C 15,9 C
20.05.2004 21:25 15,4 C 17,5 C 59 % 1016 hPa 0,0 l/m 1,8 m/s (1 Bft) O-NO45 60 0,00 min 248 lux 7,4 C 15,4 C
20.05.2004 21:30 15,2 C 17,1 C 58 % 1016 hPa 0,0 l/m 2,2 m/s (1 Bft) O-NO22.5 60 0,00 min 198 lux 7,0 C 14,3 C
20.05.2004 21:35 15,2 C 16,7 C 58 % 1016 hPa 0,0 l/m 2,1 m/s (1 Bft) O-NO22.5 65 0,00 min 115 lux 7,0 C 14,5 C
20.05.2004 21:40 14,8 C 16,5 C 61 % 1016 hPa 0,0 l/m 0,0 m/s (0 Bft) O-NO 75 0,00 min 67 lux 7,4 C 14,8 C
20.05.2004 21:45 14,2 C 16,2 C 63 % 1016 hPa 0,0 l/m 0,0 m/s (0 Bft) O-NO 75 0,00 min 38 lux 7,3 C 14,2 C
20.05.2004 21:50 14,1 C 16,0 C 63 % 1016 hPa 0,0 l/m 0,0 m/s (0 Bft) O-NO 75 0,00 min 19 lux 7,2 C 14,1 C
20.05.2004 21:55 14,0 C 15,8 C 63 % 1016 hPa 0,0 l/m 0,0 m/s (0 Bft) O-NO 75 0,00 min 15 lux 7,1 C 14,0 C
20.05.2004 22:00 13,7 C 15,6 C 64 % 1016 hPa 0,0 l/m 0,0 m/s (0 Bft) O-NO 75 0,00 min 11 lux 7,0 C 13,7 C
20.05.2004 22:05 13,6 C 15,3 C 64 % 1016 hPa 0,0 l/m 0,0 m/s (0 Bft) O-NO 75 0,00 min 6 lux 6,9 C 13,6 C
20.05.2004 22:10 13,5 C 15,1 C 65 % 1016 hPa 0,0 l/m 0,0 m/s (0 Bft) O-NO 75 0,00 min 5 lux 7,1 C 13,5 C
20.05.2004 22:15 13,3 C 15,0 C 66 % 1016 hPa 0,0 l/m 0,0 m/s (0 Bft) O-NO 75 0,00 min 4 lux 7,1 C 13,3 C
20.05.2004 22:20 13,4 C 14,8 C 67 % 1016 hPa 0,0 l/m 0,0 m/s (0 Bft) O-NO 75 0,00 min 1 lux 7,4 C 13,4 C
20.05.2004 22:25 13,3 C 14,7 C 67 % 1016 hPa 0,0 l/m 0,0 m/s (0 Bft) O-NO 75 0,00 min 0 lux 7,3 C 13,3 C
20.05.2004 22:30 12,9 C 14,7 C 68 % 1016 hPa 0,0 l/m 0,0 m/s (0 Bft) O-NO 75 0,00 min 0 lux 7,1 C 12,9 C
20.05.2004 22:35 12,6 C 14,4 C 70 % 1016 hPa 0,0 l/m 0,0 m/s (0 Bft) O-NO 75 0,00 min 0 lux 7,3 C 12,6 C
20.05.2004 22:40 12,7 C 14,3 C 71 % 1016 hPa 0,0 l/m 0,0 m/s (0 Bft) O-NO 75 0,00 min 0 lux 7,6 C 12,7 C
20.05.2004 22:45 12,2 C 14,1 C 71 % 1016 hPa 0,0 l/m 0,0 m/s (0 Bft) O-NO 75 0,00 min 0 lux 7,1 C 12,2 C
20.05.2004 22:50 12,2 C 14,0 C 71 % 1016 hPa 0,0 l/m 0,0 m/s (0 Bft) O-NO 75 0,00 min 0 lux 7,1 C 12,2 C
20.05.2004 22:55 12,3 C 13,8 C 71 % 1016 hPa 0,0 l/m 0,0 m/s (0 Bft) O-NO 75 0,00 min 0 lux 7,2 C 12,3 C
20.05.2004 23:00 12,1 C 13,6 C 72 % 1016 hPa 0,0 l/m 0,0 m/s (0 Bft) O-NO 75 0,00 min 0 lux 7,2 C 12,1 C
20.05.2004 23:05 12,1 C 13,5 C 73 % 1016 hPa 0,0 l/m 0,0 m/s (0 Bft) O22.5 85 0,00 min 0 lux 7,4 C 12,1 C
20.05.2004 23:10 11,8 C 13,4 C 74 % 1016 hPa 0,0 l/m 0,0 m/s (0 Bft) NO67.5 55 0,00 min 0 lux 7,3 C 11,8 C
20.05.2004 23:15 11,6 C 13,2 C 74 % 1016 hPa 0,0 l/m 0,0 m/s (0 Bft) N 355 0,00 min 0 lux 7,1 C 11,6 C
20.05.2004 23:20 11,3 C 13,1 C 74 % 1016 hPa 0,0 l/m 0,0 m/s (0 Bft) N 355 0,00 min 0 lux 6,8 C 11,3 C
20.05.2004 23:25 11,3 C 12,9 C 76 % 1016 hPa 0,0 l/m 0,0 m/s (0 Bft) N-NO 25 0,00 min 0 lux 7,2 C 11,3 C
20.05.2004 23:30 11,1 C 12,7 C 76 % 1016 hPa 0,0 l/m 0,0 m/s (0 Bft) N-NO 20 0,00 min 0 lux 7,0 C 11,1 C
20.05.2004 23:35 11,4 C 12,6 C 76 % 1016 hPa 0,0 l/m 0,0 m/s (0 Bft) N-NO 20 0,00 min 0 lux 7,3 C 11,4 C
20.05.2004 23:40 11,0 C 12,6 C 76 % 1016 hPa 0,0 l/m 0,0 m/s (0 Bft) N-NO 20 0,00 min 0 lux 6,9 C 11,0 C
20.05.2004 23:45 10,9 C 12,4 C 77 % 1016 hPa 0,0 l/m 0,0 m/s (0 Bft) N-NO 20 0,00 min 0 lux 7,0 C 10,9 C
20.05.2004 23:50 10,8 C 12,3 C 78 % 1016 hPa 0,0 l/m 0,0 m/s (0 Bft) NO22.5 50 0,00 min 0 lux 7,1 C 10,8 C
20.05.2004 23:55 10,6 C 12,2 C 78 % 1016 hPa 0,0 l/m 0,0 m/s (0 Bft) O-NO 65 0,00 min 0 lux 6,9 C 10,6 C
_ Min-Zeit 05:50 06:20 19:15 19:50 - 00:00 - - - - 17:05 05:50
Minimum _ 6,5 C 7,5 C 29 % 1015 hPa - 0,0 m/s (0 Bft) - - - - 3,1 C 6,5 C
_ Max-Zeit 19:15 18:05 05:15 00:00 00:00 11:50 - - 06:25 13:05 00:10 19:15
Maximum _ 24,6 C 29,0 C 94 % 1021 hPa 0,0 l/m 8,9 m/s
W-SW (5 Bft)
- - 5,00 min 112 klux 8,7 C 24,6 C
Durchschnitt _ 15,6 C 17,3 C 59 % 1019 hPa #0,0 l/m 1,6 m/s (2 Bft) W - #11:20 h 33,9 klux 6,4 C 14,7 C